User: anonymous   Login
Location: Ostrava
(49.8330°N, 18.2830°E)
Time: 07:01:18
(UTC+02:00)
Language:

NOAA 19 - Orbit

View from above orbital plane
View from above orbital plane
View from above satellite
View from above satellite

Ground track
Ground track

The orbit data is extracted from the following two-line orbital elements,

1 33591U 09005A   18114.58016972 +.00000123 +00000-0 +91729-4 0  9996
2 33591 099.1378 091.5558 0014917 115.4653 244.8063 14.12272327474340
Epoch (UTC): 24 April 2018 13:55:26
Eccentricity: 0.0014917
inclination: 99.1378°
perigee height: 841 km
apogee height: 862 km
right ascension of ascending node: 91.5558°
argument of perigee: 115.4653°
revolutions per day: 14.12272327
mean anomaly at epoch: 244.8063°
orbit number at epoch: 47434

The dashed part of the orbit path shows where the satellite is in the earth's shadow,  

DLR